Regional Weather Roundup
Issued by NWS

Home | Current Version | Previous Version | Graphics & Text | Print | Product List | Glossary On
Versions: 1 2 3 4 5 6 7 8 9 10 11 12 13 14 15 16 17 18 19 20 21 22 23 24 25 26 27 28 29 30 31 32 33 34 35 36 37 38 39 40 41 42 43 44 45 46 47 48 49 50
000
ASUS43 KDTX 300210
RWRMI
MICHIGAN HOURLY REGIONAL WEATHER ROUNDUP
NATIONAL WEATHER SERVICE DETROIT/PONTIAC MI
1000 PM EDT FRI MAY 29 2015

NOTE: "FAIR" INDICATES FEW OR NO CLOUDS BELOW 12,000 FEET WITH NO
SIGNIFICANT WEATHER AND/OR OBSTRUCTION TO VISIBILITY.

MIZ047>049-052>055-059>063-066>070-074>076-081>083-300300-
SOUTHEAST LOWER MICHIGAN

CITY           SKY/WX    TMP DP  RH WIND       PRES   REMARKS
ADRIAN         CLOUDY    77  65  66 S6        30.00R
ALMA           CLOUDY    71  69  93 SE5       29.93S
ANN ARBOR      PTCLDY    73  66  78 S6        29.99R
BAD AXE        LGT RAIN  67  63  89 S5        29.97S
CARO           CLOUDY    65  64  99 SE5       29.97S
DETROIT CITY   CLEAR     73  65  75 S8        30.00R
DETROIT        MOCLDY    72  65  78 SE6       30.00S
FLINT          MOCLDY    69  65  86 SE7       29.96S
GROSSE ILE     PTCLDY    70  64  83 SE9       29.99S
HILLSDALE      MOCLDY    77  64  63 S5        30.00R
HOWELL         PTCLDY    75  62  63 S7        29.97S

CITY           SKY/WX    TMP DP  RH WIND       PRES   REMARKS
JACKSON        PTCLDY    76  63  64 S8        29.98R
LAMBERTVILLE   PTCLDY    77  64  65 S5        30.01R
LANSING        PTCLDY    70  67  90 SE5       29.95S
LAPEER         MOCLDY    73  64  74 N3G20     30.00R
MASON          PTCLDY    71  62  74 S5        29.96S
MONROE         PTCLDY    73  66  78 S7        29.98S
MT. CLEMENS    CLOUDY    69  65  86 S9        29.98S
PONTIAC        MOCLDY    74  65  73 S7        29.98S
PORT HOPE        N/A     72  67  84 VRB5      29.95R
PORT HURON     CLEAR     70  64  83 S7        29.99S
TRI CITIES     CLOUDY    71  68  90 SE5       29.94F
MIDLAND        CLOUDY    71  68  91 E5        29.93S
TROY           PTCLDY    76  67  75 S6        30.01S
SAGINAW HB     CLOUDY    68  68 100 SE5       29.94F
$$
MIZ043>046-050>051-056>058-064>065-071>073-077>080-300300-
SOUTHWEST LOWER MICHIGAN

CITY           SKY/WX    TMP DP  RH WIND       PRES   REMARKS
BATTLE CREEK   PTCLDY    76  64  66 S10       29.95S
BENTON HARBOR  CLOUDY    67  66  97 CALM      29.93R
BIG RAPIDS     CLOUDY    69  65  89 SE6       29.91S
COLDWATER      PTCLDY    76  62  62 S6        29.97S
FREMONT        CLOUDY    70  68  93 CALM      29.91R
HOLLAND        CLOUDY    72  68  87 S8        29.93R
GRAND RAPIDS   TSTM      71  68  90 SW8       29.94R
IONIA          CLOUDY    72  68  88 S9        29.92S
KALAMAZOO      PTCLDY    76  65  68 S7        29.94R
LUDINGTON      CLOUDY    66  63  91 SW3       29.89F FOG
MARSHALL       PTCLDY    77  64  63 S7        29.95S
MOUNT PLEASANT CLOUDY    71  67  87 SE6       29.92S
MUSKEGON       MOCLDY    74  66  76 S9        29.91R
SOUTH HAVEN    LGT RAIN  69  66  89 S5        29.93S
$$
MIZ016>042-300300-
NORTHERN LOWER MICHIGAN

CITY           SKY/WX    TMP DP  RH WIND       PRES   REMARKS
ALPENA         CLOUDY    62  61  96 SE3       29.92F
BEAVER ISLAND  DRZL/FOG  53  52  95 W13       29.92R VSB 1/2
BELLAIRE       RAIN      69  65  87 SW3       29.88S
CADILLAC       RAIN      67  65  91 SW3       29.92S
CHARLEVOIX     CLOUDY    62  59  91 NW3       29.91F
FRANKFORT      CLOUDY    68  62  79 CALM      29.88S
GAYLORD        CLOUDY    66  66 100 S6        29.91F
GRAYLING       CLOUDY    66  64  94 CALM      29.92F
HARBOR SPRINGS CLOUDY    57  57  98 CALM      29.89S FOG
HOUGHTON LAKE  MOCLDY    66  64  93 SE5       29.92F
MANISTEE       CLOUDY    66  63  88 CALM      29.89F
OSCODA         CLOUDY    69  68  95 S5        29.93S
PELLSTON       CLOUDY    71  64  78 CALM      29.88F
ROGERS CITY    CLOUDY    66  64  92 S6        29.91F
TRAVERSE CITY  LGT RAIN  72  65  78 VRB3      29.87R
$$
MIZ007>008-015-300300-
EASTERN UPPER MICHIGAN

CITY           SKY/WX    TMP DP  RH WIND       PRES   REMARKS
KINROSS        MOCLDY    64  63  94 CALM      29.89R
MACKINAC ISLAN CLOUDY    58  58  99 NW6       29.88S
NEWBERRY       CLOUDY    62  61  97 SW5       29.89F FOG
S. S. MARIE    MOCLDY    61  58  90 E3        29.88S
MUNISING         N/A     51  49  92 NW15      29.92R
$$
MIZ004>006-011>014-085-300300-
CENTRAL UPPER MICHIGAN

CITY           SKY/WX    TMP DP  RH WIND       PRES   REMARKS
MANISTIQUE     HVY RAIN  55  54  95 N6        29.88S
ESCANABA       CLOUDY    64  61  88 CALM      29.87R
MENOMINEE      CLOUDY    64  61  88 CALM      29.88R
SAWYER-GWINN   LGT RAIN  57  55  94 N15       29.92R
$$
MIZ001>003-009>011-084-300300-
WESTERN UPPER MICHIGAN

CITY           SKY/WX    TMP DP  RH WIND       PRES   REMARKS
IRON MOUNTAIN  LGT RAIN  62  59  90 N10       29.90R
HOUGHTON       LGT RAIN  53  51  93 N17G25    29.95R
COPPER HARBOR    N/A     50  47  89 N16       29.94R
IRONWOOD       CLOUDY    54  54 100 N6        29.95S
$$

ABBREVIATIONS USED IN REMARKS
   TC - TEMPERATURE IN CELSIUS
  WCI - WIND CHILL INDEX
   HX - HEAT INDEX
  VSB - VISIBILITY




USA.gov is the U.S. government's official web portal to all federal, state and local government web resources and services.